Weather History for KHXD - October, 2012

Change the Weather History Date:

Monday, October 8, 2012

  Actual Average Record
Temperature  
Mean Temperature 66 °F -  
Max Temperature 75 °F 79 °F 89 °F (1962)
Min Temperature 57 °F 60 °F 43 °F (1991)
Cooling Degree Days 1    
Growing Degree Days 16 (Base 50)    
Moisture  
Dew Point 65 °F    
Average Humidity 97    
Maximum Humidity 100    
Minimum Humidity 88    
Precipitation  
Precipitation 0.05 in - - ()
Sea Level Pressure  
Sea Level Pressure 30.05 in    
Wind  
Wind Speed 7 mph (North)    
Max Wind Speed 16 mph    
Max Gust Speed 23 mph    
Visibility 7 miles    
Events Rain , Thunderstorm    
Averages and records for this station are not official NWS values.
T = Trace of Precipitation, MM = Missing Value Source: NWS Daily Summary

Daily Weather History Graph

Daily Weather History Graph

Search for Another Location

Airport or City:

Trip Planner

Search our weather history database for the weather conditions in past years. The results will help you decide how hot, cold, wet, or windy it might be!

Date:

Astronomy

Oct. 08, 2012 Rise Set
Actual Time 7:21 AM EDT 6:58 PM EDT
Civil Twilight 6:57 AM EDT 7:22 PM EDT
Nautical Twilight 6:28 AM EDT 7:50 PM EDT
Astronomical Twilight 6:00 AM EDT 8:19 PM EDT
Moon 12:22 AM EDT (10/8) 2:25 PM EDT (10/8)
Length of Visible Light 12h 25m
Length of Day
11h 36m
Waning Gibbous, 46% of the Moon is Illuminated
Oct 8
Waning Gibbous
Oct 15
New
Oct 21
First Quarter
Oct 29
Full
Nov 6
Last Quarter

Hourly Weather History & Observations

Time (EDT) Temp. Dew Point Humidity Pressure Visibility Wind Dir Wind Speed Gust Speed Precip Events Conditions
12:15 AM 73.4 °F 73.4 °F 100% 30.02 in 2.5 mi Calm Calm - 0.00 in   Mostly Cloudy
12:35 AM 75.2 °F 75.2 °F 100% 30.02 in 3.0 mi Calm Calm - 0.00 in   Mostly Cloudy
12:55 AM 75.2 °F 75.2 °F 100% 30.01 in 4.0 mi Calm Calm - 0.00 in   Mostly Cloudy
1:15 AM 75.2 °F 75.2 °F 100% 30.02 in 3.0 mi Calm Calm - 0.00 in   Scattered Clouds
1:35 AM 75.2 °F 75.2 °F 100% 30.01 in 5.0 mi Calm Calm - 0.00 in   Mostly Cloudy
1:55 AM 75.2 °F 75.2 °F 100% 30.00 in 5.0 mi Calm Calm - 0.00 in   Mostly Cloudy
2:15 AM 75.2 °F 75.2 °F 100% 30.01 in 7.0 mi West 4.6 mph - 0.00 in   Mostly Cloudy
2:35 AM 75.2 °F 75.2 °F 100% 30.01 in 5.0 mi North 8.1 mph - 0.05 in Rain Light Rain
2:55 AM 71.6 °F 71.6 °F 100% 30.01 in 5.0 mi North 13.8 mph 19.6 mph 0.05 in Thunderstorm Overcast
3:15 AM 69.8 °F 69.8 °F 100% 30.01 in 7.0 mi North 12.7 mph - 0.00 in Thunderstorm Mostly Cloudy
3:35 AM 69.8 °F 69.8 °F 100% 30.02 in 8.0 mi North 12.7 mph 18.4 mph 0.00 in   Overcast
3:55 AM 68.0 °F 68.0 °F 100% 30.01 in 7.0 mi North 13.8 mph - 0.00 in   Overcast
4:15 AM 66.2 °F 66.2 °F 100% 30.02 in 9.0 mi North 10.4 mph 16.1 mph 0.00 in   Overcast
4:35 AM 66.2 °F 66.2 °F 100% 30.02 in 10.0 mi NNE 9.2 mph - 0.00 in   Overcast
4:55 AM 66.2 °F 66.2 °F 100% 30.02 in 9.0 mi NNE 9.2 mph - 0.00 in   Overcast
5:15 AM 66.2 °F 64.4 °F 94% 30.03 in 9.0 mi North 9.2 mph - 0.00 in   Overcast
5:35 AM 64.4 °F 64.4 °F 100% 30.04 in 10.0 mi North 11.5 mph - 0.00 in   Overcast
5:55 AM 66.2 °F 64.4 °F 94% 30.05 in 10.0 mi North 11.5 mph 16.1 mph 0.00 in   Overcast
6:15 AM 64.4 °F 64.4 °F 100% 30.05 in 10.0 mi North 11.5 mph - 0.00 in   Overcast
6:35 AM 64.4 °F 64.4 °F 100% 30.06 in 10.0 mi North 11.5 mph - 0.00 in   Overcast
6:50 AM 64.4 °F 64.4 °F 100% 30.05 in 10.0 mi NNE 11.5 mph - N/A   Overcast
7:50 AM 64.4 °F 62.6 °F 94% 30.08 in 9.0 mi NNE 11.5 mph - N/A   Overcast
8:50 AM 64.4 °F 62.6 °F 94% 30.08 in 7.0 mi NE 9.2 mph - N/A   Overcast
9:50 AM 66.2 °F 64.4 °F 94% 30.09 in 5.0 mi NNE 9.2 mph - N/A   Overcast
10:50 AM 68.0 °F 66.2 °F 94% 30.08 in 5.0 mi NNE 10.4 mph - N/A   Overcast
11:51 AM 68.0 °F 66.2 °F 94% 30.09 in 5.0 mi ESE 8.1 mph - N/A   Overcast
12:50 PM 68.0 °F 64.4 °F 88% 30.07 in 6.0 mi North 9.2 mph - N/A   Overcast
1:50 PM 69.8 °F 66.2 °F 88% 30.04 in 6.0 mi NNE 9.2 mph - N/A   Overcast
2:50 PM 68.0 °F 64.4 °F 88% 30.02 in 6.0 mi North 9.2 mph - N/A   Overcast
3:50 PM 66.2 °F 64.4 °F 94% 30.02 in 5.0 mi North 9.2 mph - N/A   Overcast
4:50 PM 64.4 °F 62.6 °F 94% 30.04 in 5.0 mi NNW 10.4 mph - N/A Rain Light Rain
5:50 PM 60.8 °F 60.8 °F 100% 30.06 in 3.0 mi NNW 10.4 mph 17.3 mph N/A Rain Rain
6:50 PM 62.6 °F 62.6 °F 100% 30.05 in 4.0 mi North 10.4 mph - N/A Rain Light Rain
7:50 PM 60.8 °F 60.8 °F 100% 30.07 in 10.0 mi North 11.5 mph 20.7 mph N/A   Overcast
9:15 PM 59.0 °F 57.2 °F 94% 30.08 in 10.0 mi North 16.1 mph 23.0 mph 0.00 in   Overcast
9:35 PM 59.0 °F 57.2 °F 94% 30.08 in 10.0 mi North 12.7 mph 18.4 mph 0.00 in   Overcast
9:55 PM 59.0 °F 57.2 °F 94% 30.09 in 10.0 mi North 11.5 mph 17.3 mph 0.00 in   Overcast
10:15 PM 59.0 °F 57.2 °F 94% 30.10 in 10.0 mi North 13.8 mph - 0.00 in   Overcast
10:35 PM 59.0 °F 57.2 °F 94% 30.10 in 10.0 mi North 11.5 mph - 0.00 in   Overcast
10:55 PM 57.2 °F 57.2 °F 100% 30.10 in 10.0 mi North 10.4 mph 17.3 mph 0.00 in   Overcast
11:15 PM 57.2 °F 57.2 °F 100% 30.10 in 10.0 mi North 11.5 mph - 0.00 in   Overcast
11:55 PM 57.2 °F 57.2 °F 100% 30.11 in 10.0 mi North 9.2 mph - 0.00 in   Overcast